Hourly Weather Roundup
Issued by NWS Central Illinois

Home | Current Version | Previous Version | Text Only | Print | Product List | Glossary On
Versions: 1 2 3 4 5 6 7 8 9 10 11 12 13 14 15 16 17 18 19 20 21 22 23 24 25 26 27 28 29 30 31 32 33 34 35 36 37 38 39 40 41 42 43 44 45 46 47 48 49 50
000
NZUS43 KILX 200110
HWRILX

Area Weather Roundup
National Weather Service Lincoln IL
800 PM CDT TUE SEP 19 2017

NOTE:  "FAIR" indicates few or no clouds below 12,000 feet, with
       no sigificant weather and/or obstructions to visibility.


CITY           SKY/WX    TMP DP  RH WIND       PRES   REMARKS
Bloomington    CLEAR     74  64  71 S5        29.91R
Champaign      CLEAR     71  64  78 E5        29.91R
Danville       CLEAR     66  64  93 CALM      29.89S
Decatur        CLEAR     71  67  87 E5        29.89R
Effingham      CLEAR     73  67  83 CALM      29.91R
Flora          PTCLDY    75  69  81 SE5       29.89S
Galesburg      CLEAR     71  64  80 E6        29.87R
Jacksonville   CLEAR     74  65  71 SE6       29.85S
Lacon          CLEAR     67  65  94 E3        29.88R
Lawrenceville  CLEAR     74  70  87 SE5       29.91R
Litchfield     CLEAR     74  67  80 E5        29.88R
$$


CITY           SKY/WX    TMP DP  RH WIND       PRES   REMARKS
Lincoln        CLEAR     74  66  76 E3        29.88S
Macomb         CLEAR     71  66  86 SE5       29.87R
Mattoon        CLEAR     74  66  76 NE3       29.89R
Mt Carmel AP   CLEAR     73  67  80 S5        29.90R
Olney-Noble AP CLEAR     76  70  80 SE5       29.90S
Paris AP       CLEAR     72  65  78 E3        29.92R
Peoria         CLEAR     74  66  76 E5        29.88R
Pontiac        CLEAR     67  67  98 CALM      29.91R
Rantoul        CLEAR     73  67  81 E3        29.91R
Robinson       MOCLDY    71  68  89 S3        29.91R
Springfield    CLEAR     76  66  71 E6        29.87R
Taylorville    CLEAR     72  67  86 SE3       29.88S
$$

...REGIONAL REPORTS...


CITY           SKY/WX    TMP DP  RH WIND       PRES   REMARKS
Chicago O`Hare PTCLDY    69  63  81 NE7       29.92R
Kankakee       CLEAR     67  65  91 NE3       29.92R
Moline         CLEAR     70  63  78 E8        29.84S
Mount Sterling CLEAR     71  66  83 SE5       29.85R
Mount Vernon   NOT AVBL
Pittsfield     CLEAR     75  67  77 SE3       29.86R
Quincy         CLEAR     74  67  78 SE6       29.83S
Rockford       CLEAR     71  62  73 E12       29.90R
$$


CITY           SKY/WX    TMP DP  RH WIND       PRES   REMARKS
Burlington     CLEAR     75  67  76 SE7       29.83R
Cedar Rapids   CLEAR     72  65  78 SE9       29.80S
Des Moines     PTCLDY    79  68  69 SE15      29.70F HX  81
Kirksville     CLEAR     76  66  71 SE9       29.81R
Ottumwa        CLEAR     77  66  68 SE10      29.78R
St Louis       CLEAR     82  67  60 SE8       29.86R HX  84
$$


CITY           SKY/WX    TMP DP  RH WIND       PRES   REMARKS
Terre Haute    PTCLDY    71  66  84 CALM      29.91R
Evansville     CLEAR     74  68  81 CALM      29.92R
Indianapolis   PTCLDY    74  66  76 CALM      29.92R
Lafayette      CLEAR     67  67 100 CALM      29.91R
Madison        PTCLDY    71  64  78 SE14      29.88R
Milwaukee      CLOUDY    66  64  93 E6        29.93S
$$






USA.gov is the U.S. government's official web portal to all federal, state and local government web resources and services.